Погода в Нонгбуалампху

Таиланд     17°08′06″N   102°26′55″E
В апреле 2022 года жителям России запретили посещать сайт meteo.paraplan.net по решению Генеральной прокуратуры. Аудитория сайта уменьшилась в 10 раз. Владельцы сайта не видят смысла в поддержке погодного сервера в таких условиях. Сайт будет закрыт в октябре.
темп.,
°C
ветер,
м/с
пор.,
м/с
влажн.,
%
обл.,
%
осадки,
мм/ч
давл.,
гПа
погр.,
м
30 сентября, пт
пт3001:00+23в71397100 3.1 1004765
04:00+23вюв4998100 9.1 1004590
07:00+23вюв3999100 25.9 1005560
10:00+25юв479384 4.9 1007582
13:00+27ююв468697 7.8 1005828
16:00+26юв3589100 6.1 1003406
19:00+24в2396100 15.8 100560
22:00+23всв2398100 5.6 1007135
1 октября, сб
сб101:00+23юв3898100 9.1 1006436
04:00+23вюв1299100 4.4 100698
07:00+23в2598100 6.4 1008319
10:00+26вюв4689100 2.0 1010663
13:00+27ююв3481100 2.1 1007739
16:00+26в3486100 0.9 1006513
19:00+24в2395100 4.3 100786
22:00+23в1296100 4.1 100945
2 октября, вс
вс201:00+23всв1197100 7.8 100921
04:00+23вюв1297100 2.9 1007102
07:00+23всв1499100 10.4 1009249
10:00+24юв61094100 11.1 1010655
13:00+24ююв3588100 18.0 1008422
16:00+23всв1295100 0.1 1008161
19:00+22всв1298100 0.8 100986
22:00+22всв1399100 0.3 1011121
3 октября, пн
пн301:00+22св1299100 0.4 1010122
04:00+22св1299100 0.3 1009101
07:00+22всв129896 0.8 1011117
10:00+25в358583 0.4 1012708
13:00+25юв238795 4.1 1009469
16:00+27вюв238165 4.3 1007679
19:00+24ююв12915 5.1 100912
22:00+22ю2296100 5.1 101139
4 октября, вт
вт401:00+22ююв1195100 8.6 101111
04:00+22юв239898 9.8 1010118
07:00+23ююв119392 12.1 101285
10:00+27вюв357952 2.1 1013922
13:00+28в357484 4.6 10101190
16:00+27в468034 1.8 1009668
19:00+24вюв119099 3.9 101011
22:00+23вюв119253 2.1 101211